TimeAKST,TemperatureF,Dew PointF,Humidity,Sea Level PressureIn,VisibilityMPH,Wind Direction,Wind SpeedMPH,Gust SpeedMPH,PrecipitationIn,Events,Conditions,WindDirDegrees,DateUTC
12:16 AM,14.0,12.2,93,29.56,10.0,Calm,Calm,-,N/A,,Clear,0,2013-01-04 09:16:00
12:36 AM,14.0,12.2,93,29.56,10.0,Calm,Calm,-,N/A,,Partly Cloudy,0,2013-01-04 09:36:00
12:56 AM,12.2,10.4,92,29.57,10.0,Calm,Calm,-,N/A,,Mostly Cloudy,0,2013-01-04 09:56:00
1:16 AM,15.8,14.0,93,29.57,10.0,Calm,Calm,-,N/A,,Partly Cloudy,0,2013-01-04 10:16:00
1:36 AM,12.2,10.4,92,29.57,10.0,Calm,Calm,-,N/A,,Clear,0,2013-01-04 10:36:00
1:56 AM,12.2,10.4,92,29.58,10.0,Calm,Calm,-,N/A,,Clear,0,2013-01-04 10:56:00
2:16 AM,14.0,12.2,93,29.58,10.0,Calm,Calm,-,N/A,,Clear,0,2013-01-04 11:16:00
2:36 AM,15.8,8.6,73,29.59,10.0,Calm,Calm,-,N/A,,Clear,0,2013-01-04 11:36:00
2:56 AM,14.0,10.4,86,29.59,10.0,Calm,Calm,-,N/A,,Clear,0,2013-01-04 11:56:00
3:16 AM,12.2,6.8,79,29.60,10.0,Calm,Calm,-,N/A,,Clear,0,2013-01-04 12:16:00
3:36 AM,12.2,10.4,92,29.60,10.0,Calm,Calm,-,N/A,,Clear,0,2013-01-04 12:36:00
4:16 AM,8.6,3.2,79,29.60,10.0,Calm,Calm,-,N/A,,Clear,0,2013-01-04 13:16:00
4:36 AM,8.6,8.6,100,29.61,10.0,Calm,Calm,-,N/A,,Clear,0,2013-01-04 13:36:00
4:56 AM,8.6,8.6,100,29.61,10.0,Calm,Calm,-,N/A,,Clear,0,2013-01-04 13:56:00
5:16 AM,12.2,10.4,92,29.62,10.0,Calm,Calm,-,N/A,,Clear,0,2013-01-04 14:16:00
5:36 AM,8.6,6.8,92,29.62,10.0,Calm,Calm,-,N/A,,Clear,0,2013-01-04 14:36:00
5:56 AM,6.8,1.4,79,29.62,10.0,Calm,Calm,-,N/A,,Clear,0,2013-01-04 14:56:00
6:16 AM,3.2,1.4,92,29.63,10.0,Calm,Calm,-,N/A,,Clear,0,2013-01-04 15:16:00
6:36 AM,6.8,6.8,100,29.63,10.0,Calm,Calm,-,N/A,,Clear,0,2013-01-04 15:36:00
6:56 AM,6.8,3.2,85,29.64,10.0,Calm,Calm,-,N/A,,Clear,0,2013-01-04 15:56:00
7:16 AM,6.8,1.4,79,29.65,10.0,Calm,Calm,-,N/A,,Clear,0,2013-01-04 16:16:00
7:36 AM,6.8,5.0,92,29.65,10.0,Calm,Calm,-,N/A,,Clear,0,2013-01-04 16:36:00
7:56 AM,1.4,-5.8,72,29.66,10.0,Calm,Calm,-,N/A,,Clear,0,2013-01-04 16:56:00
8:16 AM,5.0,5.0,100,29.66,10.0,Calm,Calm,-,N/A,,Clear,0,2013-01-04 17:16:00
8:36 AM,5.0,3.2,92,29.66,10.0,Calm,Calm,-,N/A,,Clear,0,2013-01-04 17:36:00
8:56 AM,1.4,-7.6,66,29.67,10.0,Calm,Calm,-,N/A,,Clear,0,2013-01-04 17:56:00
9:16 AM,1.4,1.4,100,29.67,10.0,Calm,Calm,-,N/A,,Clear,0,2013-01-04 18:16:00
9:36 AM,3.2,-2.2,78,29.68,10.0,Calm,Calm,-,N/A,,Clear,0,2013-01-04 18:36:00
9:56 AM,5.0,1.4,85,29.68,10.0,Calm,Calm,-,N/A,,Clear,0,2013-01-04 18:56:00
10:16 AM,6.8,5.0,92,29.69,10.0,Calm,Calm,-,N/A,,Clear,0,2013-01-04 19:16:00
10:36 AM,1.4,-9.4,61,29.70,10.0,Calm,Calm,-,N/A,,Clear,0,2013-01-04 19:36:00
10:56 AM,-0.4,-0.4,100,29.71,10.0,Calm,Calm,-,N/A,,Clear,0,2013-01-04 19:56:00
11:16 AM,5.0,3.2,92,29.71,10.0,Calm,Calm,-,N/A,,Clear,0,2013-01-04 20:16:00
11:36 AM,-0.4,-4.0,85,29.72,10.0,Calm,Calm,-,N/A,,Clear,0,2013-01-04 20:36:00
11:56 AM,-4.0,-7.6,85,29.73,10.0,Calm,Calm,-,N/A,,Clear,0,2013-01-04 20:56:00
12:16 PM,1.4,-0.4,92,29.73,10.0,Calm,Calm,-,N/A,,Clear,0,2013-01-04 21:16:00
12:36 PM,3.2,-0.4,85,29.74,10.0,Calm,Calm,-,N/A,,Clear,0,2013-01-04 21:36:00
12:56 PM,1.4,-2.2,85,29.74,10.0,Calm,Calm,-,N/A,,Clear,0,2013-01-04 21:56:00
1:16 PM,-2.2,-2.2,100,29.75,10.0,Calm,Calm,-,N/A,,Clear,0,2013-01-04 22:16:00
1:36 PM,3.2,1.4,92,29.74,10.0,Calm,Calm,-,N/A,,Clear,0,2013-01-04 22:36:00
1:56 PM,1.4,-5.8,72,29.74,10.0,Calm,Calm,-,N/A,,Scattered Clouds,0,2013-01-04 22:56:00
2:16 PM,-0.4,-5.8,78,29.75,10.0,Calm,Calm,-,N/A,,Mostly Cloudy,0,2013-01-04 23:16:00
2:36 PM,-0.4,-0.4,100,29.75,10.0,Calm,Calm,-,N/A,,Overcast,0,2013-01-04 23:36:00
2:56 PM,-0.4,-9.4,66,29.76,10.0,Calm,Calm,-,N/A,,Overcast,0,2013-01-04 23:56:00
3:16 PM,1.4,1.4,100,29.77,10.0,Calm,Calm,-,N/A,,Overcast,0,2013-01-05 00:16:00
3:36 PM,1.4,-0.4,92,29.77,10.0,Calm,Calm,-,N/A,,Overcast,0,2013-01-05 00:36:00
3:56 PM,3.2,1.4,92,29.76,10.0,Calm,Calm,-,N/A,,Overcast,0,2013-01-05 00:56:00
4:16 PM,3.2,1.4,92,29.77,10.0,Calm,Calm,-,N/A,,Overcast,0,2013-01-05 01:16:00
4:36 PM,3.2,-0.4,85,29.77,10.0,Calm,Calm,-,N/A,,Overcast,0,2013-01-05 01:36:00
4:56 PM,3.2,1.4,92,29.77,10.0,Calm,Calm,-,N/A,,Overcast,0,2013-01-05 01:56:00
5:16 PM,3.2,-0.4,85,29.77,10.0,Calm,Calm,-,N/A,,Overcast,0,2013-01-05 02:16:00
5:36 PM,3.2,1.4,92,29.75,10.0,Calm,Calm,-,N/A,,Overcast,0,2013-01-05 02:36:00
5:56 PM,5.0,3.2,92,29.76,10.0,Calm,Calm,-,N/A,,Mostly Cloudy,0,2013-01-05 02:56:00
6:16 PM,5.0,1.4,85,29.75,10.0,Calm,Calm,-,N/A,,Partly Cloudy,0,2013-01-05 03:16:00
6:36 PM,3.2,1.4,92,29.77,10.0,Calm,Calm,-,N/A,,Partly Cloudy,0,2013-01-05 03:36:00
6:56 PM,3.2,-0.4,85,29.77,10.0,Calm,Calm,-,N/A,,Clear,0,2013-01-05 03:56:00
7:16 PM,5.0,3.2,92,29.77,10.0,Calm,Calm,-,N/A,,Clear,0,2013-01-05 04:16:00
7:36 PM,6.8,1.4,79,29.76,10.0,Calm,Calm,-,N/A,,Clear,0,2013-01-05 04:36:00
7:56 PM,5.0,3.2,92,29.76,10.0,Calm,Calm,-,N/A,,Clear,0,2013-01-05 04:56:00
8:16 PM,3.2,-0.4,85,29.76,10.0,Calm,Calm,-,N/A,,Clear,0,2013-01-05 05:16:00
8:36 PM,3.2,-0.4,85,29.76,10.0,Calm,Calm,-,N/A,,Clear,0,2013-01-05 05:36:00
8:56 PM,3.2,-0.4,85,29.76,10.0,Calm,Calm,-,N/A,,Clear,0,2013-01-05 05:56:00
9:16 PM,1.4,-2.2,85,29.76,10.0,Calm,Calm,-,N/A,,Clear,0,2013-01-05 06:16:00
9:36 PM,1.4,-0.4,92,29.75,10.0,Calm,Calm,-,N/A,,Clear,0,2013-01-05 06:36:00
9:56 PM,-0.4,-4.0,85,29.76,10.0,Calm,Calm,-,N/A,,Clear,0,2013-01-05 06:56:00
10:16 PM,1.4,1.4,100,29.75,10.0,Calm,Calm,-,N/A,,Clear,0,2013-01-05 07:16:00
10:36 PM,1.4,-0.4,92,29.76,10.0,Calm,Calm,-,N/A,,Clear,0,2013-01-05 07:36:00
10:56 PM,-2.2,-9.4,71,29.76,10.0,Calm,Calm,-,N/A,,Clear,0,2013-01-05 07:56:00
11:16 PM,-0.4,-2.2,92,29.76,10.0,Calm,Calm,-,N/A,,Clear,0,2013-01-05 08:16:00
11:36 PM,1.4,-2.2,85,29.75,10.0,Calm,Calm,-,N/A,,Clear,0,2013-01-05 08:36:00
11:56 PM,-0.4,-7.6,72,29.75,10.0,Calm,Calm,-,N/A,,Clear,0,2013-01-05 08:56:00